Year,Month,Day,Hour,Minute,Value (Times are PST for temperature in C)
2018,04,27,00,00,12.70
2018,04,27,00,01,12.70
2018,04,27,00,02,12.70
2018,04,27,00,03,12.70
2018,04,27,00,04,12.70
2018,04,27,00,05,12.70
2018,04,27,00,06,12.60
2018,04,27,00,07,12.60
2018,04,27,00,08,12.60
2018,04,27,00,09,12.50
2018,04,27,00,10,12.50
2018,04,27,00,11,12.50
2018,04,27,00,12,12.40
2018,04,27,00,13,12.40
2018,04,27,00,14,12.40
2018,04,27,00,15,12.50
2018,04,27,00,16,12.50
2018,04,27,00,17,12.50
2018,04,27,00,18,12.50
2018,04,27,00,19,12.40
2018,04,27,00,20,12.40
2018,04,27,00,21,12.40
2018,04,27,00,22,12.30
2018,04,27,00,23,12.30
2018,04,27,00,24,12.30
2018,04,27,00,25,12.20
2018,04,27,00,26,12.20
2018,04,27,00,27,12.10
2018,04,27,00,28,12.10
2018,04,27,00,29,12.10
2018,04,27,00,30,12.00
2018,04,27,00,31,12.00
2018,04,27,00,32,12.00
2018,04,27,00,33,11.90
2018,04,27,00,34,11.90
2018,04,27,00,35,11.90
2018,04,27,00,36,11.80
2018,04,27,00,37,11.80
2018,04,27,00,38,11.70
2018,04,27,00,39,11.70
2018,04,27,00,40,11.60
2018,04,27,00,41,11.60
2018,04,27,00,42,11.60
2018,04,27,00,43,11.70
2018,04,27,00,44,11.80
2018,04,27,00,45,11.90
2018,04,27,00,46,12.00
2018,04,27,00,47,12.10
2018,04,27,00,48,12.10
2018,04,27,00,49,12.10
2018,04,27,00,50,12.00
2018,04,27,00,51,12.00
2018,04,27,00,52,11.90
2018,04,27,00,53,11.80
2018,04,27,00,54,11.70
2018,04,27,00,55,11.60
2018,04,27,00,56,11.50
2018,04,27,00,57,11.50
2018,04,27,00,58,11.40
2018,04,27,00,59,11.40
2018,04,27,01,00,11.30
2018,04,27,01,01,11.30
2018,04,27,01,02,11.20
2018,04,27,01,03,11.20
2018,04,27,01,04,11.20
2018,04,27,01,05,11.20
2018,04,27,01,06,11.20
2018,04,27,01,07,11.10
2018,04,27,01,08,11.10
2018,04,27,01,09,11.10
2018,04,27,01,10,11.10
2018,04,27,01,11,11.10
2018,04,27,01,12,11.10
2018,04,27,01,13,11.10
2018,04,27,01,14,11.10
2018,04,27,01,15,11.10
2018,04,27,01,16,11.20
2018,04,27,01,17,11.20
2018,04,27,01,18,11.20
2018,04,27,01,19,11.20
2018,04,27,01,20,11.20
2018,04,27,01,21,11.20
2018,04,27,01,22,11.20
2018,04,27,01,23,11.20
2018,04,27,01,24,11.10
2018,04,27,01,25,11.10
2018,04,27,01,26,11.10
2018,04,27,01,27,11.10
2018,04,27,01,28,11.20
2018,04,27,01,29,11.20
2018,04,27,01,30,11.30
2018,04,27,01,31,11.30
2018,04,27,01,32,11.30
2018,04,27,01,33,11.30
2018,04,27,01,34,11.30
2018,04,27,01,35,11.30
2018,04,27,01,36,11.40
2018,04,27,01,37,11.40
2018,04,27,01,38,11.50
2018,04,27,01,39,11.50
2018,04,27,01,40,11.60
2018,04,27,01,41,11.60
2018,04,27,01,42,11.60
2018,04,27,01,43,11.60
2018,04,27,01,44,11.60
2018,04,27,01,45,11.60
2018,04,27,01,46,11.50
2018,04,27,01,47,11.50
2018,04,27,01,48,11.40
2018,04,27,01,49,11.40
2018,04,27,01,50,11.30
2018,04,27,01,51,11.30
2018,04,27,01,52,11.30
2018,04,27,01,53,11.30
2018,04,27,01,54,11.30
2018,04,27,01,55,11.20
2018,04,27,01,56,11.20
2018,04,27,01,57,11.20
2018,04,27,01,58,11.30
2018,04,27,01,59,11.30
2018,04,27,02,00,11.40
2018,04,27,02,01,11.40
2018,04,27,02,02,11.40
2018,04,27,02,03,11.40
2018,04,27,02,04,11.30
2018,04,27,02,05,11.20
2018,04,27,02,06,11.20
2018,04,27,02,07,11.20
2018,04,27,02,08,11.20
2018,04,27,02,09,11.20
2018,04,27,02,10,11.20
2018,04,27,02,11,11.20
2018,04,27,02,12,11.20
2018,04,27,02,13,11.20
2018,04,27,02,14,11.10
2018,04,27,02,15,11.10
2018,04,27,02,16,11.00
2018,04,27,02,17,10.90
2018,04,27,02,18,10.90
2018,04,27,02,19,10.80
2018,04,27,02,20,10.80
2018,04,27,02,21,10.80
2018,04,27,02,22,10.80
2018,04,27,02,23,10.80
2018,04,27,02,24,10.80
2018,04,27,02,25,10.80
2018,04,27,02,26,10.80
2018,04,27,02,27,10.80
2018,04,27,02,28,10.80
2018,04,27,02,29,10.80
2018,04,27,02,30,10.80
2018,04,27,02,31,10.80
2018,04,27,02,32,10.80
2018,04,27,02,33,10.80
2018,04,27,02,34,10.80
2018,04,27,02,35,10.80
2018,04,27,02,36,10.80
2018,04,27,02,37,10.80
2018,04,27,02,38,10.80
2018,04,27,02,39,10.80
2018,04,27,02,40,10.70
2018,04,27,02,41,10.60
2018,04,27,02,42,10.50
2018,04,27,02,43,10.40
2018,04,27,02,44,10.30
2018,04,27,02,45,10.30
2018,04,27,02,46,10.20
2018,04,27,02,47,10.20
2018,04,27,02,48,10.20
2018,04,27,02,49,10.20
2018,04,27,02,50,10.20
2018,04,27,02,51,10.20
2018,04,27,02,52,10.30
2018,04,27,02,53,10.30
2018,04,27,02,54,10.30
2018,04,27,02,55,10.30
2018,04,27,02,56,10.40
2018,04,27,02,57,10.40
2018,04,27,02,58,10.40
2018,04,27,02,59,10.40
2018,04,27,03,00,10.40
2018,04,27,03,01,10.40
2018,04,27,03,02,10.50
2018,04,27,03,03,10.50
2018,04,27,03,04,10.50
2018,04,27,03,05,10.60
2018,04,27,03,06,10.70
2018,04,27,03,07,10.70
2018,04,27,03,08,10.80
2018,04,27,03,09,10.90
2018,04,27,03,10,10.90
2018,04,27,03,11,10.90
2018,04,27,03,12,10.90
2018,04,27,03,13,10.90
2018,04,27,03,14,10.80
2018,04,27,03,15,10.70
2018,04,27,03,16,10.60
2018,04,27,03,17,10.60
2018,04,27,03,18,10.60
2018,04,27,03,19,10.50
2018,04,27,03,20,10.50
2018,04,27,03,21,10.40
2018,04,27,03,22,10.40
2018,04,27,03,23,10.40
2018,04,27,03,24,10.40
2018,04,27,03,25,10.40
2018,04,27,03,26,10.30
2018,04,27,03,27,10.30
2018,04,27,03,28,10.30
2018,04,27,03,29,10.30
2018,04,27,03,30,10.30
2018,04,27,03,31,10.30
2018,04,27,03,32,10.20
2018,04,27,03,33,10.10
2018,04,27,03,34,10.10
2018,04,27,03,35,10.00
2018,04,27,03,36,9.90
2018,04,27,03,37,9.90
2018,04,27,03,38,9.90
2018,04,27,03,39,9.90
2018,04,27,03,40,10.00
2018,04,27,03,41,10.00
2018,04,27,03,42,10.10
2018,04,27,03,43,10.20
2018,04,27,03,44,10.20
2018,04,27,03,45,10.30
2018,04,27,03,46,10.30
2018,04,27,03,47,10.30
2018,04,27,03,48,10.30
2018,04,27,03,49,10.40
2018,04,27,03,50,10.40
2018,04,27,03,51,10.40
2018,04,27,03,52,10.50
2018,04,27,03,53,10.60
2018,04,27,03,54,10.60
2018,04,27,03,55,10.60
2018,04,27,03,56,10.60
2018,04,27,03,57,10.60
2018,04,27,03,58,10.50
2018,04,27,03,59,10.50
2018,04,27,04,00,10.50
2018,04,27,04,01,10.40
2018,04,27,04,02,10.40
2018,04,27,04,03,10.40
2018,04,27,04,04,10.40
2018,04,27,04,05,10.40
2018,04,27,04,06,10.30
2018,04,27,04,07,10.30
2018,04,27,04,08,10.30
2018,04,27,04,09,10.30
2018,04,27,04,10,10.20
2018,04,27,04,11,10.10
2018,04,27,04,12,10.10
2018,04,27,04,13,10.10
2018,04,27,04,14,10.10
2018,04,27,04,15,10.10
2018,04,27,04,16,10.10
2018,04,27,04,17,10.10
2018,04,27,04,18,10.10
2018,04,27,04,19,10.00
2018,04,27,04,20,10.00
2018,04,27,04,21,9.90
2018,04,27,04,22,9.90
2018,04,27,04,23,9.80
2018,04,27,04,24,9.80
2018,04,27,04,25,9.70
2018,04,27,04,26,9.70
2018,04,27,04,27,9.70
2018,04,27,04,28,9.70
2018,04,27,04,29,9.70
2018,04,27,04,30,9.70
2018,04,27,04,31,9.70
2018,04,27,04,32,9.70
2018,04,27,04,33,9.80
2018,04,27,04,34,9.80
2018,04,27,04,35,9.80
2018,04,27,04,36,9.90
2018,04,27,04,37,10.00
2018,04,27,04,38,10.00
2018,04,27,04,39,10.10
2018,04,27,04,40,10.10
2018,04,27,04,41,10.10
2018,04,27,04,42,10.10
2018,04,27,04,43,10.10
2018,04,27,04,44,10.10
2018,04,27,04,45,10.00
2018,04,27,04,46,10.00
2018,04,27,04,47,10.00
2018,04,27,04,48,10.00
2018,04,27,04,49,10.00
2018,04,27,04,50,9.90
2018,04,27,04,51,9.90
2018,04,27,04,52,9.90
2018,04,27,04,53,9.90
2018,04,27,04,54,9.80
2018,04,27,04,55,9.70
2018,04,27,04,56,9.70
2018,04,27,04,57,9.70
2018,04,27,04,58,9.70
2018,04,27,04,59,9.70
2018,04,27,05,00,9.70
2018,04,27,05,01,9.70
2018,04,27,05,02,9.70
2018,04,27,05,03,9.70
2018,04,27,05,04,9.80
2018,04,27,05,05,9.80
2018,04,27,05,06,9.80
2018,04,27,05,07,9.80
2018,04,27,05,08,9.70
2018,04,27,05,09,9.60
2018,04,27,05,10,9.50
2018,04,27,05,11,9.40
2018,04,27,05,12,9.30
2018,04,27,05,13,9.30
2018,04,27,05,14,9.20
2018,04,27,05,15,9.20
2018,04,27,05,16,9.20
2018,04,27,05,17,9.20
2018,04,27,05,18,9.20
2018,04,27,05,19,9.20
2018,04,27,05,20,9.20
2018,04,27,05,21,9.30
2018,04,27,05,22,9.50
2018,04,27,05,23,9.60
2018,04,27,05,24,9.70
2018,04,27,05,25,9.80
2018,04,27,05,26,9.80
2018,04,27,05,27,9.80
2018,04,27,05,28,9.80
2018,04,27,05,29,9.80
2018,04,27,05,30,9.90
2018,04,27,05,31,10.00
2018,04,27,05,32,10.10
2018,04,27,05,33,10.20
2018,04,27,05,34,10.30
2018,04,27,05,35,10.30
2018,04,27,05,36,10.40
2018,04,27,05,37,10.40
2018,04,27,05,38,10.30
2018,04,27,05,39,10.30
2018,04,27,05,40,10.20
2018,04,27,05,41,10.00
2018,04,27,05,42,9.90
2018,04,27,05,43,9.80
2018,04,27,05,44,9.70
2018,04,27,05,45,9.70
2018,04,27,05,46,9.80
2018,04,27,05,47,9.90
2018,04,27,05,48,10.00
2018,04,27,05,49,10.10
2018,04,27,05,50,10.10
2018,04,27,05,51,10.20
2018,04,27,05,52,10.20
2018,04,27,05,53,10.30
2018,04,27,05,54,10.40
2018,04,27,05,55,10.40
2018,04,27,05,56,10.40
2018,04,27,05,57,10.50
2018,04,27,05,58,10.50
2018,04,27,05,59,10.60
2018,04,27,06,00,10.60
2018,04,27,06,01,10.60
2018,04,27,06,02,10.60
2018,04,27,06,03,10.50
2018,04,27,06,04,10.40
2018,04,27,06,05,10.20
2018,04,27,06,06,10.10
2018,04,27,06,07,10.00
2018,04,27,06,08,9.80
2018,04,27,06,09,9.60
2018,04,27,06,10,9.50
2018,04,27,06,11,9.40
2018,04,27,06,12,9.30
2018,04,27,06,13,9.30
2018,04,27,06,14,9.30
2018,04,27,06,15,9.30
2018,04,27,06,16,9.40
2018,04,27,06,17,9.40
2018,04,27,06,18,9.40
2018,04,27,06,19,9.50
2018,04,27,06,20,9.50
2018,04,27,06,21,9.60
2018,04,27,06,22,9.60
2018,04,27,06,23,9.70
2018,04,27,06,24,9.80
2018,04,27,06,25,9.80
2018,04,27,06,26,10.00
2018,04,27,06,27,10.00
2018,04,27,06,28,10.10
2018,04,27,06,29,10.10
2018,04,27,06,30,10.10
2018,04,27,06,31,10.10
2018,04,27,06,32,10.00
2018,04,27,06,33,10.00
2018,04,27,06,34,10.00
2018,04,27,06,35,10.00
2018,04,27,06,36,9.90
2018,04,27,06,37,9.80
2018,04,27,06,38,9.70
2018,04,27,06,39,9.70
2018,04,27,06,40,9.70
2018,04,27,06,41,9.80
2018,04,27,06,42,9.80
2018,04,27,06,43,9.90
2018,04,27,06,44,9.90
2018,04,27,06,45,10.00
2018,04,27,06,46,10.10
2018,04,27,06,47,10.20
2018,04,27,06,48,10.20
2018,04,27,06,49,10.30
2018,04,27,06,50,10.30
2018,04,27,06,51,10.30
2018,04,27,06,52,10.40
2018,04,27,06,53,10.40
2018,04,27,06,54,10.40
2018,04,27,06,55,10.40
2018,04,27,06,56,10.40
2018,04,27,06,57,10.40
2018,04,27,06,58,10.30
2018,04,27,06,59,10.30
2018,04,27,07,00,10.20
2018,04,27,07,01,10.20
2018,04,27,07,02,10.10
2018,04,27,07,03,10.10
2018,04,27,07,04,10.20
2018,04,27,07,05,10.30
2018,04,27,07,06,10.40
2018,04,27,07,07,10.50
2018,04,27,07,08,10.60
2018,04,27,07,09,10.70
2018,04,27,07,10,10.80
2018,04,27,07,11,11.00
2018,04,27,07,12,11.00
2018,04,27,07,13,11.10
2018,04,27,07,14,11.20
2018,04,27,07,15,11.20
2018,04,27,07,16,11.20
2018,04,27,07,17,11.20
2018,04,27,07,18,11.20
2018,04,27,07,19,11.20
2018,04,27,07,20,11.10
2018,04,27,07,21,11.20
2018,04,27,07,22,11.20
2018,04,27,07,23,11.30
2018,04,27,07,24,11.40
2018,04,27,07,25,11.50
2018,04,27,07,26,11.60
2018,04,27,07,27,11.70
2018,04,27,07,28,11.80
2018,04,27,07,29,11.80
2018,04,27,07,30,11.80
2018,04,27,07,31,11.80
2018,04,27,07,32,11.90
2018,04,27,07,33,11.90
2018,04,27,07,34,11.90
2018,04,27,07,35,12.00
2018,04,27,07,36,12.00
2018,04,27,07,37,12.10
2018,04,27,07,38,12.10
2018,04,27,07,39,12.20
2018,04,27,07,40,12.20
2018,04,27,07,41,12.20
2018,04,27,07,42,12.20
2018,04,27,07,43,12.20
2018,04,27,07,44,12.30
2018,04,27,07,45,12.30
2018,04,27,07,46,12.40
2018,04,27,07,47,12.50
2018,04,27,07,48,12.60
2018,04,27,07,49,12.70
2018,04,27,07,50,12.80
2018,04,27,07,51,12.90
2018,04,27,07,52,13.10
2018,04,27,07,53,13.20
2018,04,27,07,54,13.30
2018,04,27,07,55,13.40
2018,04,27,07,56,13.50
2018,04,27,07,57,13.50
2018,04,27,07,58,13.60
2018,04,27,07,59,13.60
2018,04,27,08,00,13.70
2018,04,27,08,01,13.70
2018,04,27,08,02,13.80
2018,04,27,08,03,13.80
2018,04,27,08,04,13.80
2018,04,27,08,05,13.90
2018,04,27,08,06,14.00
2018,04,27,08,07,14.00
2018,04,27,08,08,14.10
2018,04,27,08,09,14.10
2018,04,27,08,10,14.20
2018,04,27,08,11,14.30
2018,04,27,08,12,14.30
2018,04,27,08,13,14.40
2018,04,27,08,14,14.40
2018,04,27,08,15,14.50
2018,04,27,08,16,14.50
2018,04,27,08,17,14.60
2018,04,27,08,18,14.70
2018,04,27,08,19,14.70
2018,04,27,08,20,14.70
2018,04,27,08,21,14.80
2018,04,27,08,22,14.80
2018,04,27,08,23,14.90
2018,04,27,08,24,14.90
2018,04,27,08,25,15.00
2018,04,27,08,26,15.00
2018,04,27,08,27,15.10
2018,04,27,08,28,15.20
2018,04,27,08,29,15.20
2018,04,27,08,30,15.30
2018,04,27,08,31,15.40
2018,04,27,08,32,15.50
2018,04,27,08,33,15.60
2018,04,27,08,34,15.60
2018,04,27,08,35,15.70
2018,04,27,08,36,15.70
2018,04,27,08,37,15.80
2018,04,27,08,38,15.80
2018,04,27,08,39,15.90
2018,04,27,08,40,15.90
2018,04,27,08,41,15.90
2018,04,27,08,42,16.00
2018,04,27,08,43,16.10
2018,04,27,08,44,16.10
2018,04,27,08,45,16.20
2018,04,27,08,46,16.30
2018,04,27,08,47,16.30
2018,04,27,08,48,16.40
2018,04,27,08,49,16.50
2018,04,27,08,50,16.60
2018,04,27,08,51,16.70
2018,04,27,08,52,16.80
2018,04,27,08,53,16.90
2018,04,27,08,54,17.00
2018,04,27,08,55,17.10
2018,04,27,08,56,17.10
2018,04,27,08,57,17.20
2018,04,27,08,58,17.30
2018,04,27,08,59,17.40
2018,04,27,09,00,17.50
2018,04,27,09,01,17.50
2018,04,27,09,02,17.60
2018,04,27,09,03,17.60
2018,04,27,09,04,17.70
2018,04,27,09,05,17.70
2018,04,27,09,06,17.80
2018,04,27,09,07,17.80
2018,04,27,09,08,17.80
2018,04,27,09,09,17.80
2018,04,27,09,10,17.80
2018,04,27,09,11,17.80
2018,04,27,09,12,17.80
2018,04,27,09,13,17.80
2018,04,27,09,14,17.80
2018,04,27,09,15,17.90
2018,04,27,09,16,17.90
2018,04,27,09,17,18.00
2018,04,27,09,18,18.10
2018,04,27,09,19,18.10
2018,04,27,09,20,18.20
2018,04,27,09,21,18.20
2018,04,27,09,22,18.30
2018,04,27,09,23,18.30
2018,04,27,09,24,18.30
2018,04,27,09,25,18.30
2018,04,27,09,26,18.40
2018,04,27,09,27,18.40
2018,04,27,09,28,18.40
2018,04,27,09,29,18.50
2018,04,27,09,30,18.50
2018,04,27,09,31,18.60
2018,04,27,09,32,18.50
2018,04,27,09,33,18.50
2018,04,27,09,34,18.40
2018,04,27,09,35,18.40
2018,04,27,09,36,18.50
2018,04,27,09,37,18.50
2018,04,27,09,38,18.50
2018,04,27,09,39,18.60
2018,04,27,09,40,18.60
2018,04,27,09,41,18.60
2018,04,27,09,42,18.70
2018,04,27,09,43,18.70
2018,04,27,09,44,18.80
2018,04,27,09,45,18.80
2018,04,27,09,46,18.90
2018,04,27,09,47,19.00
2018,04,27,09,48,19.10
2018,04,27,09,49,19.20
2018,04,27,09,50,19.30
2018,04,27,09,51,19.30
2018,04,27,09,52,19.30
2018,04,27,09,53,19.30
2018,04,27,09,54,19.30
2018,04,27,09,55,19.40
2018,04,27,09,56,19.30
2018,04,27,09,57,19.30
2018,04,27,09,58,19.30
2018,04,27,09,59,19.30
2018,04,27,10,00,19.30
2018,04,27,10,01,19.40
2018,04,27,10,02,19.50
2018,04,27,10,03,19.50
2018,04,27,10,04,19.40
2018,04,27,10,05,19.30
2018,04,27,10,06,19.10
2018,04,27,10,07,18.90
2018,04,27,10,08,18.80
2018,04,27,10,09,18.70
2018,04,27,10,10,18.60
2018,04,27,10,11,18.60
2018,04,27,10,12,18.50
2018,04,27,10,13,18.40
2018,04,27,10,14,18.40
2018,04,27,10,15,18.40
2018,04,27,10,16,18.50
2018,04,27,10,17,18.50
2018,04,27,10,18,18.50
2018,04,27,10,19,18.50
2018,04,27,10,20,18.40
2018,04,27,10,21,18.40
2018,04,27,10,22,18.40
2018,04,27,10,23,18.40
2018,04,27,10,24,18.50
2018,04,27,10,25,18.50
2018,04,27,10,26,18.50
2018,04,27,10,27,18.60
2018,04,27,10,28,18.70
2018,04,27,10,29,18.80
2018,04,27,10,30,18.80
2018,04,27,10,31,18.90
2018,04,27,10,32,18.80
2018,04,27,10,33,18.80
2018,04,27,10,34,18.90
2018,04,27,10,35,18.90
2018,04,27,10,36,18.90
2018,04,27,10,37,19.00
2018,04,27,10,38,19.10
2018,04,27,10,39,19.10
2018,04,27,10,40,19.10
2018,04,27,10,41,19.20
2018,04,27,10,42,19.10
2018,04,27,10,43,19.20
2018,04,27,10,44,19.20
2018,04,27,10,45,19.20
2018,04,27,10,46,19.40
2018,04,27,10,47,19.50
2018,04,27,10,48,19.60
2018,04,27,10,49,19.70
2018,04,27,10,50,19.80
2018,04,27,10,51,19.90
2018,04,27,10,52,20.00
2018,04,27,10,53,20.10
2018,04,27,10,54,20.20
2018,04,27,10,55,20.20
2018,04,27,10,56,20.30
2018,04,27,10,57,20.30
2018,04,27,10,58,20.30
2018,04,27,10,59,20.30
2018,04,27,11,00,20.30
2018,04,27,11,01,20.20
2018,04,27,11,02,20.20
2018,04,27,11,03,20.30
2018,04,27,11,04,20.30
2018,04,27,11,05,20.40
2018,04,27,11,06,20.50
2018,04,27,11,07,20.60
2018,04,27,11,08,20.60
2018,04,27,11,09,20.70
2018,04,27,11,10,20.80
2018,04,27,11,11,21.00
2018,04,27,11,12,21.10
2018,04,27,11,13,21.20
2018,04,27,11,14,21.20
2018,04,27,11,15,21.20
2018,04,27,11,16,21.10
2018,04,27,11,17,21.10
2018,04,27,11,18,21.00
2018,04,27,11,19,21.00
2018,04,27,11,20,21.00
2018,04,27,11,21,21.10
2018,04,27,11,22,21.10
2018,04,27,11,23,21.20
2018,04,27,11,24,21.20
2018,04,27,11,25,21.20
2018,04,27,11,26,21.20
2018,04,27,11,27,21.20
2018,04,27,11,28,21.30
2018,04,27,11,29,21.30
2018,04,27,11,30,21.30
2018,04,27,11,31,21.30
2018,04,27,11,32,21.30
2018,04,27,11,33,21.30
2018,04,27,11,34,21.30
2018,04,27,11,35,21.30
2018,04,27,11,36,21.30
2018,04,27,11,37,21.30
2018,04,27,11,38,21.30
2018,04,27,11,39,21.30
2018,04,27,11,40,21.30
2018,04,27,11,41,21.30
2018,04,27,11,42,21.40
2018,04,27,11,43,21.40
2018,04,27,11,44,21.40
2018,04,27,11,45,21.40
2018,04,27,11,46,21.40
2018,04,27,11,47,21.50
2018,04,27,11,48,21.60
2018,04,27,11,49,21.70
2018,04,27,11,50,21.70
2018,04,27,11,51,21.80
2018,04,27,11,52,21.80
2018,04,27,11,53,21.70
2018,04,27,11,54,21.70
2018,04,27,11,55,21.70
2018,04,27,11,56,21.70
2018,04,27,11,57,21.70
2018,04,27,11,58,21.70
2018,04,27,11,59,21.80
2018,04,27,12,00,21.90
2018,04,27,12,01,21.90
2018,04,27,12,02,21.90
2018,04,27,12,03,21.90
2018,04,27,12,04,21.90
2018,04,27,12,05,21.90
2018,04,27,12,06,22.00
2018,04,27,12,07,22.00
2018,04,27,12,08,22.00
2018,04,27,12,09,21.90
2018,04,27,12,10,21.90
2018,04,27,12,11,21.90
2018,04,27,12,12,21.90
2018,04,27,12,13,21.80
2018,04,27,12,14,21.70
2018,04,27,12,15,21.70
2018,04,27,12,16,21.70
2018,04,27,12,17,21.80
2018,04,27,12,18,21.90
2018,04,27,12,19,21.90
2018,04,27,12,20,22.00
2018,04,27,12,21,22.00
2018,04,27,12,22,22.00
2018,04,27,12,23,22.00
2018,04,27,12,24,22.00
2018,04,27,12,25,22.00
2018,04,27,12,26,22.10
2018,04,27,12,27,22.10
2018,04,27,12,28,22.10
2018,04,27,12,29,22.10
2018,04,27,12,30,22.10
2018,04,27,12,31,22.10
2018,04,27,12,32,22.10
2018,04,27,12,33,22.00
2018,04,27,12,34,22.00
2018,04,27,12,35,21.90
2018,04,27,12,36,21.90
2018,04,27,12,37,21.90
2018,04,27,12,38,21.90
2018,04,27,12,39,21.90
2018,04,27,12,40,21.90
2018,04,27,12,41,21.90
2018,04,27,12,42,21.90
2018,04,27,12,43,21.90
2018,04,27,12,44,22.00
2018,04,27,12,45,22.00
2018,04,27,12,46,22.10
2018,04,27,12,47,22.10
2018,04,27,12,48,22.00
2018,04,27,12,49,22.00
2018,04,27,12,50,21.90
2018,04,27,12,51,21.80
2018,04,27,12,52,21.80
2018,04,27,12,53,21.80
2018,04,27,12,54,21.90
2018,04,27,12,55,21.90
2018,04,27,12,56,22.00
2018,04,27,12,57,22.00
2018,04,27,12,58,21.90
2018,04,27,12,59,21.90
2018,04,27,13,00,21.80
2018,04,27,13,01,21.80
2018,04,27,13,02,21.70
2018,04,27,13,03,21.70
2018,04,27,13,04,21.70
2018,04,27,13,05,21.80
2018,04,27,13,06,21.80
2018,04,27,13,07,21.80
2018,04,27,13,08,21.90
2018,04,27,13,09,21.90
2018,04,27,13,10,22.00
2018,04,27,13,11,22.00
2018,04,27,13,12,22.10
2018,04,27,13,13,22.10
2018,04,27,13,14,22.10
2018,04,27,13,15,22.10
2018,04,27,13,16,22.10
2018,04,27,13,17,22.20
2018,04,27,13,18,22.20
2018,04,27,13,19,22.10
2018,04,27,13,20,22.10
2018,04,27,13,21,22.10
2018,04,27,13,22,22.10
2018,04,27,13,23,22.10
2018,04,27,13,24,22.20
2018,04,27,13,25,22.30
2018,04,27,13,26,22.30
2018,04,27,13,27,22.40
2018,04,27,13,28,22.40
2018,04,27,13,29,22.40
2018,04,27,13,30,22.50
2018,04,27,13,31,22.50
2018,04,27,13,32,22.50
2018,04,27,13,33,22.50
2018,04,27,13,34,22.50
2018,04,27,13,35,22.50
2018,04,27,13,36,22.40
2018,04,27,13,37,22.30
2018,04,27,13,38,22.20
2018,04,27,13,39,22.20
2018,04,27,13,40,22.20
2018,04,27,13,41,22.20
2018,04,27,13,42,22.20
2018,04,27,13,43,22.30
2018,04,27,13,44,22.40
2018,04,27,13,45,22.50
2018,04,27,13,46,22.60
2018,04,27,13,47,22.70
2018,04,27,13,48,22.70
2018,04,27,13,49,22.80
2018,04,27,13,50,22.90
2018,04,27,13,51,22.90
2018,04,27,13,52,22.90
2018,04,27,13,53,23.00
2018,04,27,13,54,23.00
2018,04,27,13,55,23.00
2018,04,27,13,56,23.00
2018,04,27,13,57,22.90
2018,04,27,13,58,22.90
2018,04,27,13,59,22.80
2018,04,27,14,00,22.80
2018,04,27,14,01,22.90
2018,04,27,14,02,22.90
2018,04,27,14,03,22.90
2018,04,27,14,04,22.90
2018,04,27,14,05,22.90
2018,04,27,14,06,22.90
2018,04,27,14,07,22.90
2018,04,27,14,08,22.90
2018,04,27,14,09,22.90
2018,04,27,14,10,23.00
2018,04,27,14,11,23.00
2018,04,27,14,12,23.10
2018,04,27,14,13,23.10
2018,04,27,14,14,23.20
2018,04,27,14,15,23.20
2018,04,27,14,16,23.30
2018,04,27,14,17,23.30
2018,04,27,14,18,23.40
2018,04,27,14,19,23.40
2018,04,27,14,20,23.40
2018,04,27,14,21,23.40
2018,04,27,14,22,23.50
2018,04,27,14,23,23.50
2018,04,27,14,24,23.60
2018,04,27,14,25,23.60
2018,04,27,14,26,23.60
2018,04,27,14,27,23.60
2018,04,27,14,28,23.50
2018,04,27,14,29,23.50
2018,04,27,14,30,23.40
2018,04,27,14,31,23.30
2018,04,27,14,32,23.30
2018,04,27,14,33,23.30
2018,04,27,14,34,23.30
2018,04,27,14,35,23.30
2018,04,27,14,36,23.30
2018,04,27,14,37,23.30
2018,04,27,14,38,23.30
2018,04,27,14,39,23.30
2018,04,27,14,40,23.30
2018,04,27,14,41,23.30
2018,04,27,14,42,23.30
2018,04,27,14,43,23.30
2018,04,27,14,44,23.30
2018,04,27,14,45,23.30
2018,04,27,14,46,23.30
2018,04,27,14,47,23.40
2018,04,27,14,48,23.40
2018,04,27,14,49,23.50
2018,04,27,14,50,23.50
2018,04,27,14,51,23.50
2018,04,27,14,52,23.50
2018,04,27,14,53,23.60
2018,04,27,14,54,23.60
2018,04,27,14,55,23.70
2018,04,27,14,56,23.70
2018,04,27,14,57,23.70
2018,04,27,14,58,23.70
2018,04,27,14,59,23.70
2018,04,27,15,00,23.60
2018,04,27,15,01,23.60
2018,04,27,15,02,23.60
2018,04,27,15,03,23.50
2018,04,27,15,04,23.50
2018,04,27,15,05,23.40
2018,04,27,15,06,23.50
2018,04,27,15,07,23.50
2018,04,27,15,08,23.60
2018,04,27,15,09,23.60
2018,04,27,15,10,23.70
2018,04,27,15,11,23.80
2018,04,27,15,12,23.80
2018,04,27,15,13,23.80
2018,04,27,15,14,23.80
2018,04,27,15,15,23.80
2018,04,27,15,16,23.70
2018,04,27,15,17,23.70
2018,04,27,15,18,23.60
2018,04,27,15,19,23.60
2018,04,27,15,20,23.60
2018,04,27,15,21,23.60
2018,04,27,15,22,23.60
2018,04,27,15,23,23.50
2018,04,27,15,24,23.40
2018,04,27,15,25,23.40
2018,04,27,15,26,23.30
2018,04,27,15,27,23.30
2018,04,27,15,28,23.30
2018,04,27,15,29,23.30
2018,04,27,15,30,23.30
2018,04,27,15,31,23.30
2018,04,27,15,32,23.30
2018,04,27,15,33,23.30
2018,04,27,15,34,23.30
2018,04,27,15,35,23.40
2018,04,27,15,36,23.40
2018,04,27,15,37,23.40
2018,04,27,15,38,23.40
2018,04,27,15,39,23.40
2018,04,27,15,40,23.50
2018,04,27,15,41,23.50
2018,04,27,15,42,23.50
2018,04,27,15,43,23.50
2018,04,27,15,44,23.50
2018,04,27,15,45,23.40
2018,04,27,15,46,23.30
2018,04,27,15,47,23.30
2018,04,27,15,48,23.30
2018,04,27,15,49,23.30
2018,04,27,15,50,23.30
2018,04,27,15,51,23.30
2018,04,27,15,52,23.30
2018,04,27,15,53,23.30
2018,04,27,15,54,23.30
2018,04,27,15,55,23.20
2018,04,27,15,56,23.20
2018,04,27,15,57,23.20
2018,04,27,15,58,23.20
2018,04,27,15,59,23.30
2018,04,27,16,00,23.30
2018,04,27,16,01,23.40
2018,04,27,16,02,23.40
2018,04,27,16,03,23.40
2018,04,27,16,04,23.40
2018,04,27,16,05,23.40
2018,04,27,16,06,23.40
2018,04,27,16,07,23.40
2018,04,27,16,08,23.40
2018,04,27,16,09,23.40
2018,04,27,16,10,23.40
2018,04,27,16,11,23.30
2018,04,27,16,12,23.30
2018,04,27,16,13,23.30
2018,04,27,16,14,23.30
2018,04,27,16,15,23.40
2018,04,27,16,16,23.40
2018,04,27,16,17,23.40
2018,04,27,16,18,23.40
2018,04,27,16,19,23.50
2018,04,27,16,20,23.60
2018,04,27,16,21,23.70
2018,04,27,16,22,23.80
2018,04,27,16,23,23.90
2018,04,27,16,24,23.90
2018,04,27,16,25,24.00
2018,04,27,16,26,24.00
2018,04,27,16,27,24.10
2018,04,27,16,28,24.00
2018,04,27,16,29,24.00
2018,04,27,16,30,24.00
2018,04,27,16,31,24.00
2018,04,27,16,32,23.90
2018,04,27,16,33,23.90
2018,04,27,16,34,23.90
2018,04,27,16,35,23.80
2018,04,27,16,36,23.80
2018,04,27,16,37,23.80
2018,04,27,16,38,23.80
2018,04,27,16,39,23.80
2018,04,27,16,40,23.80
2018,04,27,16,41,23.70
2018,04,27,16,42,23.70
2018,04,27,16,43,23.70
2018,04,27,16,44,23.80
2018,04,27,16,45,23.80
2018,04,27,16,46,23.80
2018,04,27,16,47,23.90
2018,04,27,16,48,23.90
2018,04,27,16,49,23.90
2018,04,27,16,50,23.90
2018,04,27,16,51,23.90
2018,04,27,16,52,23.80
2018,04,27,16,53,23.80
2018,04,27,16,54,23.80
2018,04,27,16,55,23.70
2018,04,27,16,56,23.70
2018,04,27,16,57,23.70
2018,04,27,16,58,23.70
2018,04,27,16,59,23.60
2018,04,27,17,00,23.60
2018,04,27,17,01,23.50
2018,04,27,17,02,23.50
2018,04,27,17,03,23.40
2018,04,27,17,04,23.40
2018,04,27,17,05,23.40
2018,04,27,17,06,23.40
2018,04,27,17,07,23.30
2018,04,27,17,08,23.30
2018,04,27,17,09,23.30
2018,04,27,17,10,23.30
2018,04,27,17,11,23.30
2018,04,27,17,12,23.30
2018,04,27,17,13,23.40
2018,04,27,17,14,23.40
2018,04,27,17,15,23.40
2018,04,27,17,16,23.40
2018,04,27,17,17,23.30
2018,04,27,17,18,23.20
2018,04,27,17,19,23.10
2018,04,27,17,20,23.00
2018,04,27,17,21,23.00
2018,04,27,17,22,22.90
2018,04,27,17,23,22.90